Hourly Data Report for September 22, 2017

All times are specified in Local Standard Time (LST). Add 1 hour to adjust for Daylight Saving Time where and when it is observed.

EAST POINT (AUT)
PRINCE EDWARD ISLAND

46°27'36.000" N
61°59'18.000" W
7.70 m
8300418
71412
WEP

Download Data

Hourly Data (September 2017)
Hourly Data Report for September 22, 2017
Temp Definition
°C
Dew Point Temp Definition
°C
Rel Hum Definition
%
Wind Dir Definition
10's deg

Wind Spd Definition
km/h
Visibility Definition
km
Stn Press Definition
kPa
Hmdx Definition


Wind Chill Definition


Weather Definition


TIME
00:00 14.6 10.5 77 7 16   102.21     LegendNANA
01:00 14.6 10.6 77 6 12   102.23     LegendNANA
02:00 14.5 10.9 79 7 10   102.21     LegendNANA
03:00 12.6 10.2 85 10 3   102.22     LegendNANA
04:00 11.3 9.8 91 11 3   102.20     LegendNANA
05:00 13.4 10.3 82 5 7   102.19     LegendNANA
06:00 11.3 9.7 90 12 4   102.21     LegendNANA
07:00 13.2 11.1 88 12 6   102.23     LegendNANA
08:00 15.0 10.1 73 2 5   102.27     LegendNANA
09:00 15.5 9.7 68 4 5   102.27     LegendNANA
10:00 15.8 10.5 71 3 8   102.27     LegendNANA
11:00 16.4 11.5 73 14 10   102.20     LegendNANA
12:00 17.1 12.2 73 11 9   102.16     LegendNANA
13:00 16.8 11.5 71 14 11   102.11     LegendNANA
14:00 16.7 11.5 71 7 9   102.07     LegendNANA
15:00 16.6 11.0 70 10 7   102.01     LegendNANA
16:00 16.4 11.1 70 7 6   101.99     LegendNANA
17:00 15.9 11.0 73 8 4   101.97     LegendNANA
18:00 14.1 10.7 80 13 6   101.93     LegendNANA
19:00 13.2 11.0 86 11 7   101.94     LegendNANA
20:00 12.7 11.0 89 14 8   101.88     LegendNANA
21:00 13.1 11.1 87 13 7   101.82     LegendNANA
22:00 12.1 9.8 86 14 6   101.80     LegendNANA
23:00 14.0 12.5 91 0 1   101.82     LegendNANA

Notes on Data Quality.

Legend

  • E = Estimated
  • M = Missing
  • NA = Not Available
  • ‡ = Partner data that is not subject to review by the National Climate Archives
Date modified: